Location: Hawks Ness
(60.2333°N, 1.1667°W)
Time: 14:47:09
(UTC+00:00)

Cosmos 841 Rocket - Pass Details

Date: 22 October 2019
Orbit: 746 x 773 km, 74.0° (Epoch: 20 November)

Event Time Altitude Azimuth Distance (km) Brightness Sun altitude
Exits shadow 04:17:08 - 326° (NNW) 2,981 6.4 -20.8°
Reaches altitude 10° 04:18:50 10° 330° (NNW) 2,334 5.8 -20.6°
Maximum altitude 04:24:04 57° 49° (NE) 909 4.1 -20.0°
Drops below altitude 10° 04:29:16 10° 129° (SE) 2,315 6.5 -19.4°
Sets 04:31:40 0° 133° (SE) 3,236 7.2 -19.1°
